Location: *
(42.5628°N, 2.3633°E)
Time: 08:15:53
(UTC+00:00)

NOSS 3-4 (A) - Pass Details

Date: 30 March 2020
Orbit: 892 x 1320 km, 63.4° (Epoch: 01 June)

Event Time Altitude Azimuth Distance (km) Brightness Sun altitude
Rises 21:20:57 0° 325° (NW) 3,827 7.7 -31.7°
Reaches altitude 10° 21:23:31 10° 328° (NNW) 2,929 6.8 -32.0°
Enters shadow 21:30:10 66° 34° (NE) 1,261 3.9 -32.9°
